Regional Weather Roundup
Issued by NWS

Home | Current Version | Previous Version | Graphics & Text | Print | Product List | Glossary On
Versions: 1 2 3 4 5 6 7 8 9 10 11 12 13 14 15 16 17 18 19 20 21 22 23 24 25 26 27 28 29 30 31 32 33 34 35 36 37 38 39 40 41 42 43 44 45 46 47 48 49 50
539
ASUS43 KLMK 111910
RWRKY
KENTUCKY REGIONAL WEATHER ROUNDUP
NATIONAL WEATHER SERVICE LOUISVILLE KY
200 PM EST THU FEB 11 2016

NOTE "FAIR" INDICATES FEW OR NO CLOUDS BELOW 12,000 FEET
WITH NO SIGNIFICANT WEATHER AND/OR OBSTRUCTIONS TO VISIBILITY.

KYZ001>023-026-027-061>063-070>075-112000-
WESTERN AND SOUTH CENTRAL KENTUCKY

CITY           SKY/WX    TMP DP  RH WIND       PRES   REMARKS
PADUCAH        MOSUNNY   36  24  62 E7        30.27F WCI  30
HENDERSON      SUNNY     28  14  54 NE5       30.30F WCI  23
OWENSBORO      SUNNY     29  16  58 NE9       30.30F WCI  21
HOPKINSVILLE   SUNNY     35  24  62 N6        30.24F WCI  30
BOWLING GREEN  MOSUNNY   36  19  50 VRB5      30.26F WCI  32
GLASGOW        MOSUNNY   32  21  63 NE6       30.25F WCI  27
$$

KYZ024-025-028>034-038-045-046-053-112000-
NORTH CENTRAL KENTUCKY

CITY           SKY/WX    TMP DP  RH WIND       PRES   REMARKS
LOUISVILLE/SDF MOSUNNY   29   7  39 VRB3      30.27F
LOUISVILLE/LOU SUNNY     30   9  41 VRB6      30.28F WCI  24
FORT KNOX      SUNNY     30  10  42 VRB3      30.24S
$$

KYZ035>037-039>044-047>052-055>060-089>105-112000-
NORTHEAST KENTUCKY

CITY           SKY/WX    TMP DP  RH WIND       PRES   REMARKS
LEXINGTON      SUNNY     25  11  55 W6        30.24F WCI  18
COVINGTON      MOSUNNY   22   5  48 VRB3      30.26F
FRANKFORT      SUNNY     28   7  41 VRB3      30.24F
$$

KYZ054-064>069-076>088-106>120-112000-
SOUTHEAST KENTUCKY

CITY           SKY/WX    TMP DP  RH WIND       PRES   REMARKS
JACKSON        SUNNY     27   9  46 VRB5      30.19F WCI  22
LONDON         SUNNY     29  14  53 NW5       30.21F WCI  24
SOMERSET       SUNNY     30  14  51 CALM      30.25F
MIDDLESBORO    CLOUDY    35  18  49 NW9       30.19F WCI  27
MONTICELLO     PTCLDY    34  18  52 N14       30.24F WCI  25
$$





USA.gov is the U.S. government's official web portal to all federal, state and local government web resources and services.